Tracking 18987 objects as of 25-Feb-2018
HD Live streaming from Space Station
objects crossing your sky now

COSMOS 1908

Track COSMOS 1908 now!
10-day predictions
COSMOS 1908 is classified as:


NORAD ID: 18748
Int'l Code: 1988-001A
Perigee: 520.0 km
Apogee: 541.2 km
Inclination: 82.5 °
Period: 95.1 minutes
Semi major axis: 6901 km
RCS: 8.8422 m2 (large)
Launch date: January 6, 1988
Source: Commonwealth of Independent States (former USSR) (CIS)
Launch site: PLESETSK MISSILE AND SPACE COMPLEX (PKMTR)
aabbcc
Your satellite tracking list
Your tracking list is empty




NASA's NSSDC Master Catalog

Two Line Element Set (TLE):
1 18748U 88001A   18055.80595144  .00000906  00000-0  47786-4 0  9991
2 18748  82.4752 172.6949 0015329  96.2117 264.0862 15.14186130643980
Source of the keplerian elements: AFSPC